| time (UTC) | temp F | wind direction | speed MPH | gust MPH | rain 1hr in | rain 24hr in | rain mn in | humidity % | barometer mb |
| 20260507113723 | 68 | 161 | 2.0 | 10.0 | 0.00 | 0.02 | 0.02 | 44 | 1010.5 |
| 20260507113223 | 68 | 219 | 3.0 | 10.0 | 0.00 | 0.02 | 0.02 | 43 | 1010.5 |
| 20260507112739 | 68 | 170 | 2.0 | 7.0 | 0.00 | 0.02 | 0.02 | 45 | 1010.6 |
| 20260507112230 | 68 | 200 | 4.0 | 10.0 | 0.00 | 0.02 | 0.02 | 44 | 1010.5 |
| 20260507111740 | 69 | 234 | 6.0 | 10.0 | 0.00 | 0.02 | 0.02 | 43 | 1010.6 |
| 20260507111225 | 68 | 188 | 1.0 | 10.0 | 0.00 | 0.02 | 0.02 | 42 | 1010.6 |
| 20260507110724 | 68 | 207 | 2.0 | 10.0 | 0.00 | 0.02 | 0.02 | 43 | 1010.6 |
| 20260507110233 | 68 | 186 | 3.0 | 6.0 | 0.00 | 0.02 | 0.02 | 45 | 1010.5 |
| 20260507105738 | 67 | 181 | 2.0 | 10.0 | 0.00 | 0.02 | 0.02 | 45 | 1010.6 |
| 20260507105230 | 67 | 252 | 5.0 | 10.0 | 0.00 | 0.02 | 0.02 | 46 | 1010.5 |
| 20260507104733 | 67 | 241 | 4.0 | 9.0 | 0.00 | 0.02 | 0.02 | 48 | 1010.6 |
| 20260507104234 | 66 | 205 | 1.0 | 3.0 | 0.00 | 0.02 | 0.02 | 50 | 1010.6 |
| 20260507103730 | 66 | 200 | 0.0 | 2.0 | 0.00 | 0.02 | 0.02 | 52 | 1010.6 |
| 20260507103223 | 65 | 195 | 0.0 | 3.0 | 0.00 | 0.02 | 0.02 | 52 | 1010.7 |
| 20260507102803 | 65 | 271 | 0.0 | 3.0 | 0.00 | 0.02 | 0.02 | 55 | 1010.7 |
| 20260507102306 | 64 | 257 | 0.0 | 3.0 | 0.00 | 0.02 | 0.02 | 55 | 1010.9 |
| 20260507101750 | 64 | 207 | 0.0 | 3.0 | 0.00 | 0.02 | 0.02 | 56 | 1010.9 |
| 20260507101227 | 64 | 245 | 1.0 | 4.0 | 0.00 | 0.02 | 0.02 | 57 | 1011.0 |
| 20260507100728 | 64 | 215 | 0.0 | 6.0 | 0.00 | 0.02 | 0.02 | 56 | 1011.0 |
| 20260507100241 | 65 | 239 | 2.0 | 7.0 | 0.00 | 0.02 | 0.02 | 55 | 1011.1 |
| 20260507095719 | 64 | 255 | 3.0 | 9.0 | 0.00 | 0.02 | 0.02 | 57 | 1011.1 |
| 20260507095216 | 64 | 227 | 2.0 | 9.0 | 0.00 | 0.02 | 0.02 | 59 | 1011.0 |
| 20260507094741 | 63 | 240 | 1.0 | 6.0 | 0.00 | 0.02 | 0.02 | 57 | 1011.0 |
| 20260507094223 | 63 | 234 | 3.0 | 10.0 | 0.00 | 0.02 | 0.02 | 60 | 1010.9 |
| 20260507093740 | 62 | 256 | 2.0 | 10.0 | 0.00 | 0.02 | 0.02 | 61 | 1010.8 |
| 20260507093224 | 61 | 252 | 1.0 | 2.0 | 0.00 | 0.02 | 0.02 | 64 | 1010.9 |
| 20260507092743 | 61 | 242 | 0.0 | 0.0 | 0.00 | 0.02 | 0.02 | 62 | 1010.8 |
| 20260507092220 | 60 | 237 | 0.0 | 4.0 | 0.00 | 0.02 | 0.02 | 62 | 1010.9 |
| 20260507091722 | 60 | 242 | 0.0 | 6.0 | 0.00 | 0.02 | 0.02 | 62 | 1011.0 |
| 20260507091230 | 60 | 234 | 1.0 | 6.0 | 0.00 | 0.02 | 0.02 | 64 | 1011.0 |
| 20260507090721 | 60 | 236 | 2.0 | 6.0 | 0.01 | 0.02 | 0.02 | 62 | 1011.0 |
| 20260507090229 | 60 | 237 | 1.0 | 5.0 | 0.01 | 0.02 | 0.02 | 67 | 1011.0 |
| 20260507085726 | 59 | 239 | 2.0 | 7.0 | 0.02 | 0.02 | 0.02 | 66 | 1011.1 |
| 20260507085239 | 59 | 253 | 3.0 | 7.0 | 0.02 | 0.02 | 0.02 | 69 | 1011.1 |
| 20260507084734 | 58 | 236 | 3.0 | 5.0 | 0.02 | 0.02 | 0.02 | 72 | 1011.0 |
| 20260507084224 | 57 | 240 | 1.0 | 3.0 | 0.02 | 0.02 | 0.02 | 76 | 1010.9 |
| 20260507083724 | 57 | 188 | 2.0 | 2.0 | 0.02 | 0.02 | 0.02 | 76 | 1011.0 |
| 20260507083227 | 56 | 260 | 0.0 | 0.0 | 0.02 | 0.02 | 0.02 | 83 | 1011.1 |
| 20260507082729 | 56 | 260 | 0.0 | 0.0 | 0.02 | 0.02 | 0.02 | 84 | 1011.2 |
| 20260507082230 | 56 | 260 | 0.0 | 0.0 | 0.02 | 0.02 | 0.02 | 85 | 1011.1 |
| 20260507081724 | 55 | 260 | 0.0 | 0.0 | 0.02 | 0.02 | 0.02 | 83 | 1011.2 |
| 20260507081254 | 56 | 260 | 0.0 | 0.0 | 0.02 | 0.02 | 0.02 | 84 | 1011.0 |
| 20260507080736 | 56 | 260 | 0.0 | 0.0 | 0.02 | 0.02 | 0.02 | 82 | 1011.1 |
| 20260507080235 | 56 | 260 | 0.0 | 0.0 | 0.02 | 0.02 | 0.02 | 79 | 1011.0 |
| 20260507075733 | 56 | 260 | 0.0 | 0.0 | 0.00 | 0.00 | 0.00 | 77 | 1011.2 |
| 20260507075236 | 56 | 260 | 0.0 | 0.0 | 0.00 | 0.00 | 0.00 | 76 | 1011.1 |
| 20260507074731 | 56 | 260 | 0.0 | 0.0 | 0.00 | 0.00 | 0.00 | 76 | 1011.1 |
| 20260507074221 | 56 | 260 | 0.0 | 0.0 | 0.00 | 0.00 | 0.00 | 77 | 1011.1 |
| 20260507073724 | 56 | 260 | 0.0 | 0.0 | 0.00 | 0.00 | 0.00 | 77 | 1011.0 |
| 20260507073220 | 55 | 260 | 0.0 | 0.0 | 0.00 | 0.00 | 0.00 | 77 | 1011.0 |
| 20260507072725 | 55 | 260 | 0.0 | 0.0 | 0.00 | 0.00 | 0.00 | 78 | 1011.0 |
| 20260507072228 | 55 | 260 | 0.0 | 0.0 | 0.00 | 0.00 | 0.00 | 81 | 1010.9 |
| 20260507071723 | 54 | 260 | 0.0 | 0.0 | 0.00 | 0.00 | 0.00 | 83 | 1010.6 |
| 20260507071226 | 53 | 260 | 0.0 | 0.0 | 0.00 | 0.00 | 0.00 | 84 | 1010.6 |
| 20260507070720 | 52 | 260 | 0.0 | 0.0 | 0.00 | 0.00 | 0.00 | 84 | 1010.5 |
| 20260507070229 | 52 | 260 | 0.0 | 0.0 | 0.00 | 0.00 | 0.00 | 84 | 1010.6 |
| 20260507065736 | 51 | 260 | 0.0 | 0.0 | 0.00 | 0.00 | 0.00 | 83 | 1010.5 |
| 20260507065241 | 51 | 260 | 0.0 | 0.0 | 0.00 | 0.00 | 0.00 | 82 | 1010.5 |
| 20260507064755 | 51 | 260 | 0.0 | 0.0 | 0.00 | 0.00 | 0.00 | 82 | 1010.5 |
| 20260507064226 | 51 | 260 | 0.0 | 0.0 | 0.00 | 0.00 | 0.00 | 82 | 1010.5 |
| 20260507063724 | 50 | 260 | 0.0 | 0.0 | 0.00 | 0.00 | 0.00 | 82 | 1010.6 |
| 20260507063227 | 50 | 260 | 0.0 | 0.0 | 0.00 | 0.00 | 0.00 | 81 | 1010.6 |
| 20260507062739 | 50 | 260 | 0.0 | 0.0 | 0.00 | 0.00 | 0.00 | 81 | 1010.5 |
| 20260507062221 | 50 | 260 | 0.0 | 0.0 | 0.00 | 0.00 | 0.00 | 81 | 1010.5 |
| 20260507061734 | 50 | 260 | 0.0 | 0.0 | 0.00 | 0.00 | 0.00 | 81 | 1010.4 |
| 20260507061238 | 50 | 260 | 0.0 | 0.0 | 0.00 | 0.00 | 0.00 | 81 | 1010.3 |
| 20260507060747 | 49 | 260 | 0.0 | 0.0 | 0.00 | 0.00 | 0.00 | 82 | 1010.2 |
| 20260507060224 | 49 | 260 | 0.0 | 0.0 | 0.00 | 0.00 | 0.00 | 81 | 1010.2 |
| 20260507055724 | 49 | 260 | 0.0 | 0.0 | 0.00 | 0.00 | 0.00 | 81 | 1010.2 |
| 20260507055224 | 49 | 260 | 0.0 | 0.0 | 0.00 | 0.00 | 0.00 | 81 | 1010.2 |
| 20260507054737 | 49 | 260 | 0.0 | 0.0 | 0.00 | 0.00 | 0.00 | 82 | 1010.0 |
| 20260507054223 | 49 | 260 | 0.0 | 0.0 | 0.00 | 0.00 | 0.00 | 82 | 1010.0 |
| 20260507053727 | 49 | 260 | 0.0 | 0.0 | 0.00 | 0.00 | 0.00 | 81 | 1009.9 |
| 20260507053228 | 49 | 260 | 0.0 | 0.0 | 0.00 | 0.00 | 0.00 | 81 | 1009.9 |
| 20260507052742 | 49 | 260 | 0.0 | 0.0 | 0.00 | 0.00 | 0.00 | 81 | 1009.9 |
| 20260507052244 | 49 | 260 | 0.0 | 0.0 | 0.00 | 0.00 | 0.00 | 81 | 1009.9 |
| 20260507051721 | 49 | 260 | 0.0 | 0.0 | 0.00 | 0.00 | 0.00 | 81 | 1009.8 |
| 20260507051221 | 49 | 260 | 0.0 | 0.0 | 0.00 | 0.00 | 0.00 | 81 | 1009.7 |
| 20260507050716 | 49 | 260 | 0.0 | 0.0 | 0.00 | 0.00 | 0.00 | 80 | 1009.8 |
| 20260507050220 | 49 | 260 | 0.0 | 0.0 | 0.00 | 0.00 | 0.00 | 80 | 1009.8 |
| 20260507045726 | 49 | 260 | 0.0 | 0.0 | 0.00 | 0.00 | 0.00 | 79 | 1009.7 |
| 20260507045243 | 50 | 260 | 0.0 | 0.0 | 0.00 | 0.00 | 0.00 | 79 | 1009.6 |
| 20260507044722 | 50 | 260 | 0.0 | 0.0 | 0.00 | 0.00 | 0.00 | 79 | 1009.6 |
| 20260507044234 | 50 | 260 | 0.0 | 0.0 | 0.00 | 0.00 | 0.00 | 79 | 1009.6 |
| 20260507043730 | 50 | 260 | 0.0 | 0.0 | 0.00 | 0.00 | 0.00 | 79 | 1009.6 |
| 20260507043233 | 50 | 260 | 0.0 | 0.0 | 0.00 | 0.00 | 0.00 | 79 | 1009.6 |
| 20260507042720 | 50 | 260 | 0.0 | 0.0 | 0.00 | 0.00 | 0.00 | 79 | 1009.6 |
| 20260507042222 | 50 | 260 | 0.0 | 0.0 | 0.00 | 0.00 | 0.00 | 80 | 1009.6 |
| 20260507041743 | 49 | 260 | 0.0 | 0.0 | 0.00 | 0.00 | 0.00 | 80 | 1009.6 |
| 20260507041216 | 49 | 260 | 0.0 | 0.0 | 0.00 | 0.00 | 0.00 | 80 | 1009.5 |
| 20260507040726 | 49 | 260 | 0.0 | 0.0 | 0.00 | 0.00 | 0.00 | 80 | 1009.4 |
| 20260507040225 | 48 | 260 | 0.0 | 0.0 | 0.00 | 0.00 | 0.00 | 79 | 1009.5 |
| 20260507035733 | 48 | 260 | 0.0 | 0.0 | 0.00 | 0.00 | 0.00 | 79 | 1009.5 |
| 20260507035235 | 48 | 260 | 0.0 | 0.0 | 0.00 | 0.00 | 0.00 | 78 | 1009.6 |
| 20260507034800 | 48 | 260 | 0.0 | 0.0 | 0.00 | 0.00 | 0.00 | 78 | 1009.6 |
| 20260507034216 | 49 | 260 | 0.0 | 0.0 | 0.00 | 0.00 | 0.00 | 78 | 1009.6 |
| 20260507033742 | 49 | 260 | 0.0 | 0.0 | 0.00 | 0.00 | 0.00 | 78 | 1009.6 |
| 20260507033229 | 49 | 260 | 0.0 | 0.0 | 0.00 | 0.00 | 0.00 | 77 | 1009.6 |
| 20260507032803 | 49 | 260 | 0.0 | 0.0 | 0.00 | 0.00 | 0.00 | 77 | 1009.7 |
| 20260507032221 | 49 | 260 | 0.0 | 0.0 | 0.00 | 0.00 | 0.00 | 77 | 1009.6 |
| 20260507031743 | 49 | 260 | 0.0 | 0.0 | 0.00 | 0.00 | 0.00 | 76 | 1009.7 |
| 20260507031219 | 49 | 260 | 0.0 | 0.0 | 0.00 | 0.00 | 0.00 | 76 | 1009.6 |
| 20260507030723 | 50 | 260 | 0.0 | 0.0 | 0.00 | 0.00 | 0.00 | 75 | 1009.6 |
| 20260507030224 | 50 | 260 | 0.0 | 0.0 | 0.00 | 0.00 | 0.00 | 75 | 1009.6 |
| 20260507025719 | 50 | 260 | 0.0 | 0.0 | 0.00 | 0.00 | 0.00 | 75 | 1009.7 |
| 20260507025219 | 50 | 260 | 0.0 | 0.0 | 0.00 | 0.00 | 0.00 | 74 | 1009.8 |
| 20260507024725 | 50 | 260 | 0.0 | 0.0 | 0.00 | 0.00 | 0.00 | 74 | 1009.7 |
| 20260507024218 | 50 | 260 | 0.0 | 0.0 | 0.00 | 0.00 | 0.00 | 74 | 1009.7 |
| 20260507023727 | 50 | 260 | 0.0 | 0.0 | 0.00 | 0.00 | 0.00 | 74 | 1009.7 |
| 20260507023237 | 50 | 260 | 0.0 | 0.0 | 0.00 | 0.00 | 0.00 | 73 | 1009.6 |
| 20260507022717 | 50 | 260 | 0.0 | 0.0 | 0.00 | 0.00 | 0.00 | 73 | 1009.6 |
| 20260507022241 | 51 | 260 | 0.0 | 0.0 | 0.00 | 0.00 | 0.00 | 72 | 1009.6 |
| 20260507021719 | 51 | 260 | 0.0 | 0.0 | 0.00 | 0.00 | 0.00 | 72 | 1009.6 |
| 20260507021235 | 51 | 260 | 0.0 | 0.0 | 0.00 | 0.00 | 0.00 | 71 | 1009.5 |
| 20260507020738 | 51 | 260 | 0.0 | 0.0 | 0.00 | 0.00 | 0.00 | 71 | 1009.5 |
| 20260507020239 | 52 | 260 | 0.0 | 0.0 | 0.00 | 0.00 | 0.00 | 70 | 1009.6 |
| 20260507015737 | 52 | 260 | 0.0 | 0.0 | 0.00 | 0.00 | 0.00 | 70 | 1009.6 |
| 20260507015240 | 52 | 260 | 0.0 | 0.0 | 0.00 | 0.00 | 0.00 | 70 | 1009.6 |
| 20260507014736 | 52 | 260 | 0.0 | 0.0 | 0.00 | 0.00 | 0.00 | 69 | 1009.8 |
| 20260507014255 | 51 | 260 | 0.0 | 0.0 | 0.00 | 0.00 | 0.00 | 68 | 1009.8 |
| 20260507013744 | 51 | 260 | 0.0 | 0.0 | 0.00 | 0.00 | 0.00 | 70 | 1009.8 |
| 20260507013235 | 51 | 260 | 0.0 | 0.0 | 0.00 | 0.00 | 0.00 | 71 | 1009.8 |
| 20260507012734 | 50 | 260 | 0.0 | 0.0 | 0.00 | 0.00 | 0.00 | 73 | 1009.8 |
| 20260507012226 | 50 | 260 | 0.0 | 0.0 | 0.00 | 0.00 | 0.00 | 74 | 1009.8 |
| 20260507011737 | 50 | 260 | 0.0 | 0.0 | 0.00 | 0.00 | 0.00 | 74 | 1009.7 |
| 20260507011227 | 50 | 260 | 0.0 | 0.0 | 0.00 | 0.00 | 0.00 | 74 | 1009.8 |
| 20260507010721 | 50 | 260 | 0.0 | 0.0 | 0.00 | 0.00 | 0.00 | 74 | 1009.8 |
| 20260507010241 | 50 | 260 | 0.0 | 0.0 | 0.00 | 0.00 | 0.00 | 74 | 1009.9 |
| 20260507005735 | 50 | 260 | 0.0 | 0.0 | 0.00 | 0.00 | 0.00 | 75 | 1009.9 |
| 20260507005239 | 50 | 260 | 0.0 | 0.0 | 0.00 | 0.00 | 0.00 | 75 | 1010.0 |
| 20260507004721 | 49 | 260 | 0.0 | 0.0 | 0.00 | 0.00 | 0.00 | 75 | 1010.0 |
| 20260507004235 | 49 | 260 | 0.0 | 0.0 | 0.00 | 0.00 | 0.00 | 75 | 1010.0 |
| 20260507003756 | 49 | 260 | 0.0 | 0.0 | 0.00 | 0.00 | 0.00 | 75 | 1010.1 |
| 20260507003217 | 49 | 260 | 0.0 | 0.0 | 0.00 | 0.00 | 0.00 | 74 | 1010.0 |
| 20260507002733 | 49 | 260 | 0.0 | 0.0 | 0.00 | 0.00 | 0.00 | 74 | 1010.1 |
| 20260507002218 | 49 | 260 | 0.0 | 0.0 | 0.00 | 0.00 | 0.00 | 74 | 1010.1 |
| 20260507001725 | 49 | 260 | 0.0 | 0.0 | 0.00 | 0.00 | 0.00 | 74 | 1010.1 |
| 20260507001250 | 50 | 260 | 0.0 | 0.0 | 0.00 | 0.00 | 0.00 | 74 | 1010.1 |
| 20260507000723 | 50 | 260 | 0.0 | 0.0 | 0.00 | 0.00 | 0.00 | 73 | 1010.2 |
| 20260507000222 | 50 | 260 | 0.0 | 0.0 | 0.00 | 0.00 | 0.00 | 73 | 1010.2 |
| 20260506235723 | 50 | 260 | 0.0 | 0.0 | 0.00 | 0.00 | 0.00 | 72 | 1010.1 |
| 20260506235245 | 50 | 260 | 0.0 | 0.0 | 0.00 | 0.00 | 0.00 | 73 | 1010.2 |
| 20260506234731 | 50 | 260 | 0.0 | 0.0 | 0.00 | 0.00 | 0.00 | 72 | 1010.2 |
| 20260506234232 | 50 | 260 | 0.0 | 0.0 | 0.00 | 0.00 | 0.00 | 72 | 1010.2 |
| 20260506233756 | 50 | 260 | 0.0 | 0.0 | 0.00 | 0.00 | 0.00 | 72 | 1010.2 |
| 20260506233304 | 50 | 260 | 0.0 | 0.0 | 0.00 | 0.00 | 0.00 | 71 | 1010.2 |
| 20260506232730 | 50 | 260 | 0.0 | 0.0 | 0.00 | 0.00 | 0.00 | 71 | 1010.1 |
| 20260506232221 | 51 | 260 | 0.0 | 0.0 | 0.00 | 0.00 | 0.00 | 71 | 1010.1 |
| 20260506231752 | 51 | 260 | 0.0 | 0.0 | 0.00 | 0.00 | 0.00 | 70 | 1010.1 |
| 20260506231231 | 51 | 260 | 0.0 | 0.0 | 0.00 | 0.00 | 0.00 | 70 | 1010.1 |
| 20260506230726 | 51 | 260 | 0.0 | 0.0 | 0.00 | 0.00 | 0.00 | 70 | 1010.1 |
| 20260506230229 | 51 | 260 | 0.0 | 0.0 | 0.00 | 0.00 | 0.00 | 70 | 1010.2 |
| 20260506225731 | 51 | 260 | 0.0 | 0.0 | 0.00 | 0.00 | 0.00 | 69 | 1010.2 |
| 20260506225250 | 51 | 260 | 0.0 | 0.0 | 0.00 | 0.00 | 0.00 | 69 | 1010.2 |
| 20260506224740 | 52 | 260 | 0.0 | 0.0 | 0.00 | 0.00 | 0.00 | 69 | 1010.1 |
| 20260506224238 | 52 | 260 | 0.0 | 0.0 | 0.00 | 0.00 | 0.00 | 69 | 1010.1 |
| 20260506223803 | 52 | 260 | 0.0 | 0.0 | 0.00 | 0.00 | 0.00 | 68 | 1010.0 |
| 20260506223221 | 52 | 260 | 0.0 | 0.0 | 0.00 | 0.00 | 0.00 | 68 | 1010.1 |
| 20260506222737 | 52 | 260 | 0.0 | 0.0 | 0.00 | 0.00 | 0.00 | 68 | 1010.1 |
| 20260506222305 | 53 | 260 | 0.0 | 0.0 | 0.00 | 0.00 | 0.00 | 68 | 1010.1 |
| 20260506221728 | 53 | 260 | 0.0 | 0.0 | 0.00 | 0.00 | 0.00 | 68 | 1010.0 |
| 20260506221234 | 53 | 260 | 0.0 | 0.0 | 0.00 | 0.00 | 0.00 | 67 | 1010.1 |
| 20260506220738 | 53 | 260 | 0.0 | 0.0 | 0.00 | 0.00 | 0.00 | 67 | 1010.1 |
| 20260506220223 | 53 | 260 | 0.0 | 0.0 | 0.00 | 0.00 | 0.00 | 66 | 1010.1 |
| 20260506215745 | 53 | 260 | 0.0 | 0.0 | 0.00 | 0.00 | 0.00 | 65 | 1010.1 |
| 20260506215247 | 53 | 260 | 0.0 | 0.0 | 0.00 | 0.00 | 0.00 | 64 | 1010.2 |
| 20260506214732 | 54 | 260 | 0.0 | 0.0 | 0.00 | 0.00 | 0.00 | 65 | 1010.1 |
| 20260506214225 | 54 | 260 | 0.0 | 0.0 | 0.00 | 0.00 | 0.00 | 65 | 1010.2 |
| 20260506213732 | 54 | 260 | 0.0 | 0.0 | 0.00 | 0.00 | 0.00 | 64 | 1010.2 |
| 20260506213225 | 54 | 260 | 0.0 | 0.0 | 0.00 | 0.00 | 0.00 | 64 | 1010.2 |
| 20260506212731 | 54 | 260 | 0.0 | 0.0 | 0.00 | 0.00 | 0.00 | 63 | 1010.2 |
| 20260506212233 | 55 | 260 | 0.0 | 0.0 | 0.00 | 0.00 | 0.00 | 63 | 1010.2 |
| 20260506211728 | 55 | 260 | 0.0 | 0.0 | 0.00 | 0.00 | 0.00 | 62 | 1010.3 |
| 20260506211226 | 55 | 260 | 0.0 | 0.0 | 0.00 | 0.00 | 0.00 | 62 | 1010.3 |
| 20260506210721 | 55 | 260 | 0.0 | 0.0 | 0.00 | 0.00 | 0.00 | 61 | 1010.2 |
| 20260506210226 | 56 | 260 | 0.0 | 0.0 | 0.00 | 0.00 | 0.00 | 61 | 1010.1 |
| 20260506205729 | 56 | 260 | 0.0 | 0.0 | 0.00 | 0.00 | 0.00 | 61 | 1010.1 |
| 20260506205249 | 56 | 260 | 0.0 | 0.0 | 0.00 | 0.00 | 0.00 | 60 | 1010.1 |
| 20260506204723 | 57 | 260 | 0.0 | 0.0 | 0.00 | 0.00 | 0.00 | 60 | 1010.0 |
| 20260506204225 | 57 | 260 | 0.0 | 0.0 | 0.00 | 0.00 | 0.00 | 60 | 1010.0 |
| 20260506203728 | 57 | 260 | 0.0 | 0.0 | 0.00 | 0.00 | 0.00 | 59 | 1009.9 |
| 20260506203226 | 58 | 260 | 0.0 | 0.0 | 0.00 | 0.00 | 0.00 | 58 | 1009.9 |
| 20260506202732 | 58 | 260 | 0.0 | 0.0 | 0.00 | 0.00 | 0.00 | 57 | 1009.8 |
| 20260506202235 | 58 | 260 | 0.0 | 0.0 | 0.00 | 0.00 | 0.00 | 56 | 1009.9 |
| 20260506201732 | 59 | 260 | 0.0 | 0.0 | 0.00 | 0.00 | 0.00 | 55 | 1009.9 |
| 20260506201224 | 59 | 260 | 0.0 | 0.0 | 0.00 | 0.00 | 0.00 | 55 | 1009.8 |
| 20260506200728 | 60 | 260 | 0.0 | 0.0 | 0.00 | 0.00 | 0.00 | 52 | 1009.8 |
| 20260506200224 | 60 | 260 | 0.0 | 0.0 | 0.00 | 0.00 | 0.00 | 52 | 1009.8 |
| 20260506195726 | 61 | 260 | 0.0 | 0.0 | 0.00 | 0.00 | 0.00 | 51 | 1009.7 |
| 20260506195236 | 61 | 260 | 0.0 | 0.0 | 0.00 | 0.00 | 0.00 | 50 | 1009.7 |
| 20260506194730 | 62 | 260 | 0.0 | 0.0 | 0.00 | 0.00 | 0.00 | 49 | 1009.6 |
| 20260506194215 | 62 | 260 | 0.0 | 0.0 | 0.00 | 0.00 | 0.00 | 48 | 1009.6 |
| 20260506193739 | 63 | 260 | 0.0 | 0.0 | 0.00 | 0.00 | 0.00 | 46 | 1009.6 |
| 20260506193220 | 64 | 260 | 0.0 | 0.0 | 0.00 | 0.00 | 0.00 | 45 | 1009.6 |
| 20260506192742 | 64 | 260 | 0.0 | 0.0 | 0.00 | 0.00 | 0.00 | 43 | 1009.6 |
| 20260506192229 | 65 | 260 | 0.0 | 0.0 | 0.00 | 0.00 | 0.00 | 43 | 1009.6 |
| 20260506191722 | 65 | 260 | 0.0 | 0.0 | 0.00 | 0.00 | 0.00 | 42 | 1009.5 |
| 20260506191253 | 66 | 260 | 0.0 | 0.0 | 0.00 | 0.00 | 0.00 | 41 | 1009.5 |
| 20260506190740 | 66 | 260 | 0.0 | 0.0 | 0.00 | 0.00 | 0.00 | 40 | 1009.4 |
| 20260506190237 | 67 | 260 | 0.0 | 0.0 | 0.00 | 0.00 | 0.00 | 38 | 1009.5 |
| 20260506185735 | 67 | 260 | 0.0 | 0.0 | 0.00 | 0.00 | 0.00 | 38 | 1009.4 |
| 20260506185252 | 67 | 260 | 0.0 | 1.0 | 0.00 | 0.00 | 0.00 | 37 | 1009.5 |
| 20260506184738 | 68 | 260 | 0.0 | 1.0 | 0.00 | 0.00 | 0.00 | 36 | 1009.5 |
| 20260506184224 | 68 | 260 | 0.0 | 1.0 | 0.00 | 0.00 | 0.00 | 35 | 1009.5 |
| 20260506183746 | 69 | 260 | 0.0 | 1.0 | 0.00 | 0.00 | 0.00 | 33 | 1009.5 |
| 20260506183222 | 69 | 260 | 0.0 | 0.0 | 0.00 | 0.00 | 0.00 | 33 | 1009.5 |
| 20260506182732 | 70 | 260 | 0.0 | 0.0 | 0.00 | 0.00 | 0.00 | 32 | 1009.5 |
| 20260506182225 | 70 | 260 | 0.0 | 1.0 | 0.00 | 0.00 | 0.00 | 32 | 1009.4 |
| 20260506181721 | 70 | 260 | 0.0 | 1.0 | 0.00 | 0.00 | 0.00 | 31 | 1009.4 |
| 20260506181253 | 70 | 260 | 0.0 | 2.0 | 0.00 | 0.00 | 0.00 | 32 | 1009.4 |
| 20260506180735 | 70 | 260 | 0.0 | 2.0 | 0.00 | 0.00 | 0.00 | 31 | 1009.4 |
| 20260506180215 | 71 | 260 | 1.0 | 2.0 | 0.00 | 0.00 | 0.00 | 31 | 1009.5 |
| 20260506175740 | 71 | 254 | 0.0 | 2.0 | 0.00 | 0.00 | 0.00 | 30 | 1009.4 |
| 20260506175223 | 71 | 253 | 0.0 | 2.0 | 0.00 | 0.00 | 0.00 | 31 | 1009.5 |
| 20260506174741 | 71 | 244 | 0.0 | 2.0 | 0.00 | 0.00 | 0.00 | 31 | 1009.6 |
| 20260506174217 | 71 | 240 | 0.0 | 3.0 | 0.00 | 0.00 | 0.00 | 30 | 1009.5 |
| 20260506173727 | 71 | 240 | 0.0 | 3.0 | 0.00 | 0.00 | 0.00 | 30 | 1009.5 |
| 20260506173244 | 72 | 245 | 1.0 | 3.0 | 0.00 | 0.00 | 0.00 | 30 | 1009.5 |
| 20260506172738 | 72 | 239 | 1.0 | 3.0 | 0.00 | 0.00 | 0.00 | 31 | 1009.6 |
| 20260506172216 | 72 | 239 | 1.0 | 5.0 | 0.00 | 0.00 | 0.00 | 30 | 1009.5 |
| 20260506171741 | 72 | 240 | 1.0 | 5.0 | 0.00 | 0.00 | 0.00 | 31 | 1009.6 |
| 20260506171259 | 72 | 244 | 1.0 | 3.0 | 0.00 | 0.00 | 0.00 | 30 | 1009.5 |
| 20260506170726 | 73 | 228 | 0.0 | 1.0 | 0.00 | 0.00 | 0.00 | 29 | 1009.5 |
| 20260506170227 | 73 | 239 | 1.0 | 1.0 | 0.00 | 0.00 | 0.00 | 30 | 1009.5 |
| 20260506165717 | 73 | 219 | 0.0 | 0.0 | 0.00 | 0.00 | 0.00 | 27 | 1009.6 |
| 20260506165220 | 72 | 232 | 0.0 | 3.0 | 0.00 | 0.00 | 0.00 | 28 | 1009.6 |
| 20260506164723 | 72 | 232 | 0.0 | 3.0 | 0.00 | 0.00 | 0.00 | 29 | 1009.6 |
| 20260506164242 | 72 | 229 | 0.0 | 1.0 | 0.00 | 0.00 | 0.00 | 29 | 1009.7 |
| 20260506163724 | 72 | 202 | 0.0 | 1.0 | 0.00 | 0.00 | 0.00 | 29 | 1009.7 |
| 20260506163236 | 72 | 248 | 0.0 | 1.0 | 0.00 | 0.00 | 0.00 | 28 | 1009.8 |
| 20260506162717 | 72 | 179 | 0.0 | 1.0 | 0.00 | 0.00 | 0.00 | 28 | 1009.9 |
| 20260506162250 | 72 | 104 | 0.0 | 1.0 | 0.00 | 0.00 | 0.00 | 29 | 1009.8 |
| 20260506161737 | 71 | 159 | 0.0 | 1.0 | 0.00 | 0.00 | 0.00 | 29 | 1009.9 |
| 20260506161224 | 71 | 143 | 0.0 | 1.0 | 0.00 | 0.00 | 0.00 | 29 | 1009.9 |
| 20260506160733 | 70 | 105 | 0.0 | 1.0 | 0.00 | 0.00 | 0.00 | 30 | 1010.0 |
| 20260506160246 | 70 | 44 | 0.0 | 1.0 | 0.00 | 0.00 | 0.00 | 30 | 1009.9 |
| 20260506155741 | 69 | 44 | 0.0 | 1.0 | 0.00 | 0.00 | 0.00 | 32 | 1010.0 |
| 20260506155250 | 69 | 44 | 0.0 | 1.0 | 0.00 | 0.00 | 0.00 | 31 | 1010.0 |
| 20260506154736 | 69 | 45 | 0.0 | 1.0 | 0.00 | 0.00 | 0.00 | 32 | 1010.1 |
| 20260506154225 | 69 | 44 | 0.0 | 1.0 | 0.00 | 0.00 | 0.00 | 31 | 1010.1 |
| 20260506153738 | 69 | 43 | 0.0 | 1.0 | 0.00 | 0.00 | 0.00 | 31 | 1010.1 |
| 20260506153219 | 69 | 43 | 0.0 | 1.0 | 0.00 | 0.00 | 0.00 | 31 | 1010.1 |
| 20260506152719 | 69 | 48 | 0.0 | 3.0 | 0.00 | 0.00 | 0.00 | 30 | 1010.1 |
| 20260506152222 | 69 | 47 | 0.0 | 3.0 | 0.00 | 0.00 | 0.00 | 30 | 1009.3 |
| 20260506151732 | 70 | 269 | 0.0 | 3.0 | 0.00 | 0.00 | 0.00 | 30 | 1009.3 |
| 20260506151247 | 71 | 269 | 0.0 | 3.0 | 0.00 | 0.00 | 0.00 | 31 | 1009.3 |
| 20260506150733 | 70 | 225 | 0.0 | 0.0 | 0.00 | 0.00 | 0.00 | 30 | 1009.4 |
| 20260506150224 | 70 | 265 | 0.0 | 0.0 | 0.00 | 0.00 | 0.00 | 30 | 1009.4 |
| 20260506145722 | 69 | 250 | 0.0 | 0.0 | 0.00 | 0.00 | 0.00 | 32 | 1009.7 |
| 20260506145237 | 68 | 250 | 0.0 | 1.0 | 0.00 | 0.00 | 0.00 | 31 | 1009.7 |
| 20260506144715 | 68 | 250 | 0.0 | 2.0 | 0.00 | 0.00 | 0.00 | 31 | 1009.8 |
| 20260506144241 | 69 | 250 | 0.0 | 2.0 | 0.00 | 0.00 | 0.00 | 31 | 1009.9 |
| 20260506143719 | 68 | 250 | 0.0 | 2.0 | 0.00 | 0.00 | 0.00 | 33 | 1009.9 |
| 20260506143215 | 69 | 251 | 1.0 | 5.0 | 0.00 | 0.00 | 0.00 | 32 | 1009.9 |
| 20260506142726 | 70 | 252 | 1.0 | 5.0 | 0.00 | 0.00 | 0.00 | 31 | 1009.9 |
| 20260506142216 | 71 | 215 | 1.0 | 3.0 | 0.00 | 0.00 | 0.00 | 29 | 1009.9 |
| 20260506141717 | 71 | 227 | 0.0 | 1.0 | 0.00 | 0.00 | 0.00 | 30 | 1010.0 |
| 20260506141227 | 71 | 192 | 0.0 | 1.0 | 0.00 | 0.00 | 0.00 | 30 | 1010.2 |
| 20260506140744 | 71 | 169 | 0.0 | 1.0 | 0.00 | 0.00 | 0.00 | 31 | 1010.3 |
| 20260506140231 | 72 | 167 | 0.0 | 1.0 | 0.00 | 0.00 | 0.00 | 31 | 1010.4 |
| 20260506135743 | 72 | 156 | 0.0 | 1.0 | 0.00 | 0.00 | 0.00 | 31 | 1010.4 |
| 20260506135234 | 72 | 42 | 0.0 | 3.0 | 0.00 | 0.00 | 0.00 | 29 | 1010.4 |
| 20260506134729 | 72 | 161 | 0.0 | 3.0 | 0.00 | 0.00 | 0.00 | 30 | 1010.4 |
| 20260506134222 | 71 | 62 | 1.0 | 3.0 | 0.00 | 0.00 | 0.00 | 32 | 1010.4 |
| 20260506133743 | 71 | 50 | 0.0 | 1.0 | 0.00 | 0.00 | 0.00 | 32 | 1010.6 |
| 20260506133219 | 71 | 65 | 1.0 | 2.0 | 0.00 | 0.00 | 0.00 | 32 | 1010.7 |
| 20260506132723 | 70 | 119 | 0.0 | 2.0 | 0.00 | 0.00 | 0.00 | 34 | 1010.6 |
| 20260506132238 | 71 | 273 | 1.0 | 4.0 | 0.00 | 0.00 | 0.00 | 32 | 1010.7 |
| 20260506131720 | 70 | 192 | 1.0 | 5.0 | 0.00 | 0.00 | 0.00 | 34 | 1010.7 |
| 20260506131245 | 70 | 229 | 0.0 | 5.0 | 0.00 | 0.00 | 0.00 | 32 | 1010.7 |
| 20260506130718 | 70 | 163 | 0.0 | 6.0 | 0.00 | 0.00 | 0.00 | 35 | 1010.7 |
| 20260506130248 | 70 | 178 | 0.0 | 6.0 | 0.00 | 0.00 | 0.00 | 34 | 1010.8 |
| 20260506125732 | 70 | 181 | 1.0 | 6.0 | 0.00 | 0.00 | 0.00 | 33 | 1010.8 |
| 20260506125218 | 70 | 192 | 1.0 | 4.0 | 0.00 | 0.00 | 0.00 | 35 | 1010.9 |
| 20260506124744 | 69 | 213 | 1.0 | 3.0 | 0.00 | 0.00 | 0.00 | 35 | 1010.9 |
| 20260506124224 | 69 | 351 | 0.0 | 3.0 | 0.00 | 0.00 | 0.00 | 36 | 1010.9 |
| 20260506123727 | 68 | 50 | 0.0 | 4.0 | 0.00 | 0.00 | 0.00 | 36 | 1011.0 |
| 20260506123220 | 68 | 30 | 2.0 | 4.0 | 0.00 | 0.00 | 0.00 | 33 | 1011.1 |
| 20260506122757 | 68 | 146 | 0.0 | 2.0 | 0.00 | 0.00 | 0.00 | 35 | 1011.1 |
| 20260506122259 | 67 | 204 | 0.0 | 4.0 | 0.00 | 0.00 | 0.00 | 35 | 1011.2 |
| 20260506121801 | 67 | 360 | 0.0 | 5.0 | 0.00 | 0.00 | 0.00 | 34 | 1011.3 |
| 20260506121241 | 68 | 21 | 2.0 | 5.0 | 0.00 | 0.00 | 0.00 | 35 | 1011.3 |
| 20260506120736 | 68 | 61 | 1.0 | 5.0 | 0.00 | 0.00 | 0.00 | 36 | 1011.4 |
| 20260506120224 | 67 | 119 | 0.0 | 5.0 | 0.00 | 0.00 | 0.00 | 38 | 1011.4 |
| 20260506115728 | 67 | 189 | 3.0 | 5.0 | 0.00 | 0.00 | 0.00 | 38 | 1011.4 |
| 20260506115223 | 66 | 142 | 0.0 | 3.0 | 0.00 | 0.00 | 0.00 | 38 | 1011.4 |
| 20260506114717 | 66 | 248 | 1.0 | 4.0 | 0.00 | 0.00 | 0.00 | 37 | 1011.4 |
| 20260506114220 | 66 | 265 | 2.0 | 4.0 | 0.00 | 0.00 | 0.00 | 38 | 1011.5 |